Temp
9 8 8 9 9 11 11 10 9 9 11 10 11 10 9 9 8 8 7 5 5 5 6 6 6 5 5 5 5 5 5 6 7 6 10 9 10 12 12 12 13 14 16 15
9 9 9 10 9 10 10 10 8 8 9 10 10 9 9 9 9 8 7 7 6 5 5 5 5 5 5 4 4 4 4 5 5 6 7 7 8 10 12 11 12 13 14 14
9 11 10 10 8 9 9 9 8 8 8 10 9 9 9 9 9 8 7 7 7 6 5 4 5 4 4 4 3 3 3 4 4 5 6 8 9 9 11 11 11 13 13 13
9 9 10 9 9 9 10 10 9 9 9 9 9 8 9 8 8 8 7 6 6 6 5 5 4 4 4 3 3 3 3 3 4 4 4 5 5 6 7 7 9 11 12 13
10 9 9 9 9 9 9 8 8 9 9 9 10 6 9 9 8 7 7 6 5 6 5 4 4 4 4 3 3 3 2 3 3 3 3 4 5 5 7 8 9 10 11 12
9 9 9 9 9 9 8 9 8 7 7 4 10 8 9 9 9 9 8 6 6 6 5 4 4 4 3 3 3 3 2 2 2 3 3 3 3 4 6 6 7 9 10 12
7 9 8 8 9 9 7 6 3 5 3 7 8 7 9 10 9 9 8 6 6 6 4 3 3 3 3 3 2 2 1 1 2 2 2 3 3 3 4 5 6 7 9 10
4 8 8 8 8 7 7 7 4 7 6 5 8 9 12 10 9 8 7 6 7 5 3 3 3 2 2 2 2 2 1 1 1 1 2 2 3 3 3 4 5 6 6 8
3 7 7 8 8 7 7 4 8 3 0 5 7 8 10 9 8 7 6 6 5 4 4 3 3 2 2 2 1 1 1 1 1 1 1 1 2 2 3 4 4 5 6 7
4 6 4 8 8 8 8 8 5 2 4 5 5 6 9 10 9 8 8 6 5 4 3 2 2 2 1 1 1 1 1 0 0 0 1 1 1 2 2 3 4 5 5 6
1 4 5 6 4 6 7 4 8 7 6 3 2 8 6 9 9 8 7 6 5 4 3 2 2 2 1 1 1 1 1 0 0 0 0 0 1 1 2 2 3 4 5 6
5 3 5 4 5 5 7 7 8 4 4 2 3 5 8 8 7 7 6 6 5 4 3 2 2 1 1 1 1 0 0 0 -0 -0 0 0 0 0 1 2 2 4 5 6
6 4 4 7 5 5 5 7 7 5 3 2 1 6 6 5 6 6 5 4 4 3 2 1 1 1 1 1 1 0 0 -0 -0 -0 -0 0 0 0 0 1 2 3 4 5
6 -1 5 10 9 5 4 3 6 4 -1 2 3 3 6 2 2 3 2 1 -0 0 -0 -0 -1 -0 0 0 0 0 0 -0 -0 -0 -0 -0 -0 -0 0 1 2 3 3 4
6 5 -1 0 3 5 5 3 3 2 5 3 3 1 6 4 2 1 -0 0 2 1 1 -0 -4 -2 -1 0 1 0 0 -0 -1 -1 -1 -0 -0 -0 0 1 1 2 3 3
5 5 -0 0 -1 1 3 3 3 2 -0 2 4 5 8 6 5 1 1 1 0 0 -1 -2 -2 -1 -1 1 1 0 -0 -0 -0 -1 -1 -1 -0 0 0 0 1 1 2 2
5 2 0 6 -2 -1 7 3 3 3 3 5 3 6 7 7 7 5 6 4 2 2 2 0 -0 1 2 2 1 0 -0 -0 -1 -1 -1 -1 -1 -1 -0 -0 0 1 1 2
4 3 -0 2 1 10 10 3 5 5 3 4 5 5 6 7 7 6 5 6 5 3 3 2 3 3 3 3 2 0 -0 -0 -1 -1 -1 -1 -1 -1 -1 -0 -0 -0 0 1
4 4 -1 4 -1 8 10 4 4 7 9 7 6 7 6 6 6 6 7 5 5 4 5 5 6 5 4 3 2 0 -0 -0 -0 -0 -0 -0 -0 -1 -1 -1 -1 -1 -0 -0
4 4 3 -4 5 9 13 7 5 7 9 8 6 6 6 6 9 8 9 7 5 6 7 6 6 5 4 3 2 1 0 -0 -0 0 1 1 1 0 0 -1 -1 -1 -1 -1
1 -0 3 -4 1 5 8 6 5 11 14 7 5 6 5 6 8 8 8 8 6 6 7 6 5 5 5 3 2 1 1 1 1 0 1 1 1 1 1 -0 -1 -1 -1 -1
3 2 1 -3 0 8 5 6 11 12 10 8 6 6 5 5 6 7 6 7 6 5 4 6 5 4 4 4 3 2 2 2 1 1 0 1 1 1 0 -1 -1 -1 -1 -1
7 6 5 6 7 8 6 10 6 7 9 9 8 7 6 6 6 5 5 4 5 6 6 5 5 6 4 4 3 3 4 3 2 1 0 -0 -0 0 0 0 -1 -1 -1 -1
2 3 3 5 8 7 5 7 5 6 7 9 8 8 5 7 6 5 4 3 4 6 5 6 5 3 4 5 4 5 4 3 2 2 1 -0 -1 -1 -1 -1 -1 -1 -1 -2
3 4 3 4 6 6 5 5 7 6 4 6 5 6 6 5 5 4 4 3 5 6 6 5 5 5 6 5 5 6 5 3 2 1 1 0 -1 -2 -1 -1 -0 -0 -0 -0
2 4 8 9 9 11 12 7 5 5 5 5 4 5 4 4 4 4 3 6 7 7 7 5 5 5 7 6 6 5 4 3 3 1 0 0 0 -0 -1 -1 -2 -2 -2 -2
Height
859 872 879 872 870 866 867 870 878 869 862 864 858 860 859 857 859 859 860 859 856 854 849 846 843 842 838 834 830 825 820 818 817 817 814 813 813 812 812 814 813 818 823 827
868 874 872 866 870 874 872 874 879 873 866 864 859 861 858 857 856 858 858 857 854 853 851 847 844 841 838 834 830 829 827 824 823 823 816 814 817 813 814 814 813 810 821 826
871 868 867 866 875 878 879 878 880 880 871 862 866 864 859 855 855 857 858 857 854 852 851 849 846 843 840 836 834 835 832 828 827 822 816 816 817 817 813 813 810 811 818 822
874 873 869 871 874 882 876 876 877 875 876 873 869 884 861 858 858 856 856 857 856 853 851 848 846 844 841 839 837 835 833 831 827 824 819 819 821 818 814 815 813 813 819 819
872 873 874 870 875 879 878 880 880 874 875 876 867 895 860 858 858 856 854 854 854 853 851 850 848 847 844 840 837 833 831 827 826 823 821 820 820 818 814 814 813 813 816 817
877 873 873 873 875 876 879 873 882 885 884 913 868 883 866 858 851 850 851 852 851 851 851 848 848 846 843 840 834 828 827 826 825 821 823 822 821 820 817 818 817 815 814 815
887 877 877 874 873 875 884 891 930 918 923 897 878 885 859 847 848 848 850 851 850 849 850 849 845 843 841 838 835 831 830 826 824 824 824 823 822 821 820 818 817 815 814 815
909 892 879 878 881 889 888 893 925 910 911 905 879 868 843 845 846 848 848 849 847 848 849 848 848 845 842 839 836 833 828 828 827 825 824 822 821 822 820 818 818 818 817 816
915 891 884 880 879 886 892 911 894 927 943 912 886 865 847 847 848 849 849 849 849 848 847 846 845 844 842 839 837 833 830 829 828 826 824 822 820 821 819 818 817 817 815 815
900 903 899 882 879 883 885 889 911 927 927 918 898 885 858 844 845 846 847 849 848 847 846 844 843 842 841 839 837 836 836 832 827 826 824 822 818 819 815 815 815 815 814 814
906 901 901 891 899 892 896 908 893 902 906 936 938 876 856 843 842 846 847 845 846 846 845 843 843 841 838 837 836 835 834 831 829 828 824 820 820 819 816 815 814 814 814 812
889 900 904 902 893 891 889 889 891 924 921 928 920 890 843 844 844 845 845 843 842 843 843 843 843 841 839 837 836 835 833 833 833 829 822 822 819 820 818 817 816 814 814 813
883 896 913 893 899 896 894 889 890 903 916 923 938 883 849 849 845 845 845 843 842 841 842 842 841 841 841 838 835 834 834 833 829 827 825 822 822 819 818 817 816 814 812 812
881 917 891 874 872 887 900 896 890 906 949 917 905 883 850 860 856 848 848 846 844 841 841 841 841 839 839 839 837 835 834 832 830 828 826 824 822 821 819 816 815 814 813 812
880 894 918 907 895 887 888 894 894 905 893 904 890 895 850 848 851 847 845 844 842 839 838 838 838 837 836 836 837 836 834 833 832 829 827 826 825 823 822 819 817 816 816 815
883 892 914 911 910 903 895 884 884 890 907 896 881 866 836 836 836 843 839 841 841 838 838 836 833 833 833 833 833 834 834 832 830 831 831 830 826 824 824 822 822 819 819 818
882 897 915 887 918 912 871 872 871 873 876 868 881 846 834 832 829 831 826 831 834 831 830 831 830 829 829 831 831 832 832 833 832 830 829 829 829 829 827 824 822 822 821 821
882 893 913 911 906 867 833 855 853 849 861 857 848 837 832 826 823 824 823 821 822 824 824 825 826 827 828 829 830 832 832 832 831 831 831 831 830 830 829 828 828 828 827 827
875 882 920 899 933 853 826 849 852 841 826 824 835 828 832 829 827 817 809 810 809 814 817 819 820 825 828 829 830 830 831 832 831 830 831 831 832 832 832 832 832 832 832 830
879 880 890 940 890 859 810 827 835 831 831 808 818 822 830 834 824 816 806 807 806 805 814 817 818 820 825 829 830 831 830 830 831 830 830 830 830 831 831 832 833 832 832 833
895 901 894 935 911 860 820 826 833 831 808 806 811 813 822 829 818 809 806 805 807 806 807 816 819 818 820 824 829 830 831 829 830 830 829 829 829 829 830 831 831 832 833 833
866 883 898 921 913 849 819 828 816 796 796 801 808 809 811 809 811 810 807 805 806 807 808 806 814 819 818 819 820 825 828 829 829 829 830 830 830 829 830 831 832 833 834 834
839 829 845 842 823 800 804 792 797 797 795 796 800 803 804 806 807 808 805 803 803 804 804 807 806 808 815 818 818 818 820 824 827 828 829 831 832 832 832 832 833 834 834 834
837 830 835 829 793 798 800 795 796 794 794 792 794 796 800 800 800 804 803 801 801 801 801 801 803 805 805 805 809 811 815 818 821 824 827 828 830 832 833 833 834 834 834 835
811 816 822 819 796 796 791 789 784 787 789 792 792 793 793 797 795 797 799 796 795 795 797 798 798 796 796 801 803 805 810 814 816 818 821 823 826 828 830 831 832 832 833 835
798 796 791 782 771 766 763 768 773 782 783 781 786 789 788 790 790 790 792 789 789 790 791 793 792 791 790 794 799 806 809 809 811 816 817 819 821 822 824 827 828 829 830 831
Wind_Speed
5 8 3 3 3 1 1 1 3 4 2 6 2 4 5 2 1 1 3 4 5 5 6 12 14 16 20 21 22 19 18 19 18 16 5 2 3 3 5 3 25 31 28 26
6 4 5 4 7 5 3 2 4 6 4 3 3 6 5 3 2 2 1 2 3 5 6 8 12 16 18 20 22 19 17 15 16 17 12 7 9 5 2 10 3 21 25 26
6 1 3 4 7 5 2 2 4 4 6 0 6 5 4 3 2 2 2 2 3 4 6 6 9 13 16 19 20 16 16 13 13 14 12 9 7 7 1 4 8 7 12 20
4 4 3 5 5 3 3 2 4 4 4 1 4 4 4 4 6 5 5 5 5 5 4 5 8 11 14 16 17 15 14 12 12 11 12 9 8 7 7 10 10 4 5 14
1 2 4 5 2 2 6 4 3 2 1 2 2 3 6 2 6 8 6 6 6 4 4 4 6 7 10 14 16 15 15 13 12 10 10 10 10 10 10 13 13 8 8 6
1 1 3 0 2 3 5 1 3 3 1 3 2 4 5 3 4 3 3 6 6 4 2 4 5 7 10 12 15 17 16 13 12 12 10 8 9 11 9 10 10 9 8 7
6 3 2 3 4 3 8 4 3 5 4 4 1 2 8 3 4 3 5 7 6 4 2 3 6 9 12 13 15 15 14 15 13 10 9 8 8 9 9 9 11 11 8 7
3 6 4 5 4 1 3 2 4 4 2 5 2 4 3 2 3 4 5 6 4 5 3 3 2 4 8 11 13 15 16 15 12 11 9 7 7 9 10 9 10 11 10 10
4 4 4 3 2 4 5 4 1 5 1 2 4 6 5 2 5 6 8 6 8 7 5 4 3 4 7 10 11 12 14 14 11 10 10 8 8 9 9 9 10 11 10 10
2 3 3 2 2 4 3 2 3 3 3 4 5 5 4 4 6 5 6 7 8 6 7 6 5 6 8 9 10 9 11 11 12 11 9 9 9 10 9 9 9 8 9 9
3 3 5 1 1 4 3 2 1 1 2 4 1 6 6 6 5 7 8 7 7 7 7 6 7 7 9 9 9 10 11 13 12 11 10 9 8 8 7 7 7 8 9 7
3 3 2 6 2 3 3 2 3 4 6 0 2 6 4 6 6 5 8 7 5 6 6 5 7 8 9 9 8 9 11 11 10 10 10 9 8 7 5 4 4 4 5 5
4 1 3 7 4 4 3 3 2 4 2 5 5 6 2 5 6 7 8 8 7 6 5 5 8 9 8 8 8 9 9 10 12 10 9 9 8 8 6 5 3 1 1 2
5 2 5 5 5 4 3 5 5 5 3 2 6 8 10 6 7 8 8 7 7 7 4 6 6 10 9 8 6 7 8 9 10 11 9 9 9 9 8 7 5 4 5 6
3 3 2 4 2 3 4 5 9 9 5 6 4 6 11 10 8 7 4 3 6 6 7 8 5 9 8 8 6 5 6 7 8 8 9 9 8 8 7 7 7 7 8 10
1 1 2 4 3 1 6 10 11 8 5 11 11 21 13 7 3 4 6 4 7 6 8 8 9 11 11 8 6 5 4 5 7 7 6 6 8 8 9 8 9 10 10 11
5 5 3 5 2 5 7 8 13 5 5 10 6 12 3 3 6 5 6 6 8 8 8 7 10 14 11 8 5 4 3 2 2 4 6 7 7 8 8 9 9 10 11 11
5 4 2 3 5 3 5 4 6 8 5 16 11 9 6 5 4 7 8 7 8 8 8 8 12 11 10 9 8 4 3 1 1 3 4 4 5 6 7 8 8 8 9 10
1 4 2 2 3 7 1 5 8 8 8 20 22 17 6 5 6 8 6 11 11 8 13 16 14 12 11 10 8 7 5 4 4 3 4 4 3 4 5 6 7 7 9 10
3 5 3 3 3 6 4 3 5 4 5 7 15 9 5 3 1 4 2 3 5 12 9 13 14 14 12 12 10 9 8 6 6 6 5 5 5 5 6 6 6 8 8 9
3 2 5 2 3 9 7 7 6 5 6 5 8 7 8 6 6 2 2 2 2 8 14 11 15 17 15 14 13 11 10 10 7 7 6 6 5 5 5 4 5 6 7 8
9 8 4 3 1 9 8 5 9 4 2 5 5 6 9 8 6 5 6 4 5 7 11 18 17 16 16 17 17 15 15 9 9 8 8 6 5 5 5 5 6 6 6 6
5 8 7 11 8 1 14 3 7 3 4 5 5 5 7 7 7 9 8 8 11 13 14 16 20 22 19 19 20 19 16 15 14 13 12 10 9 8 7 8 9 10 9 8
5 4 3 2 7 15 9 12 6 6 7 4 4 5 7 7 6 8 7 7 11 16 19 20 20 21 25 26 26 24 17 17 18 17 16 15 14 13 13 12 11 11 12 12
5 12 6 6 8 3 11 12 13 13 8 7 6 7 9 6 9 8 8 9 17 21 21 21 25 27 29 27 29 27 24 21 21 21 19 19 17 17 16 16 14 14 12 11
6 8 8 8 8 7 4 8 9 11 11 14 9 6 10 11 11 10 8 22 21 21 20 23 27 31 32 27 28 28 27 27 25 24 23 23 22 21 20 19 18 17 15 15
Wind_Direction
24 64 31 52 8 281 223 253 297 278 283 355 270 280 260 289 45 12 25 358 339 336 339 357 4 5 5 10 13 13 9 5 5 8 50 48 22 32 37 101 212 202 204 204
36 61 292 131 49 64 44 343 311 274 268 352 328 287 245 245 247 234 219 307 310 321 330 351 355 2 8 5 10 10 7 2 355 350 3 350 317 309 48 342 21 186 196 206
115 253 318 92 57 25 24 38 318 268 323 87 342 308 268 261 220 184 237 267 276 289 311 329 350 354 359 2 3 1 9 359 344 345 350 337 312 299 332 304 16 144 202 224
84 335 51 82 82 47 312 190 296 298 9 324 45 287 286 258 258 245 246 274 278 282 308 318 341 352 353 352 354 359 4 5 353 354 356 356 338 328 322 317 323 340 323 245
228 25 23 71 90 95 238 347 278 289 343 28 5 69 269 22 281 262 254 254 266 243 283 315 327 334 343 349 350 354 358 3 359 357 358 349 331 316 311 307 305 310 292 313
74 212 73 153 275 170 302 51 34 29 45 32 289 108 286 241 235 305 260 258 259 235 255 301 320 328 343 354 352 357 355 359 359 3 348 347 333 327 314 306 306 306 301 296
344 347 347 43 41 49 35 45 348 347 14 215 35 93 246 277 255 236 255 261 256 218 239 280 327 343 345 350 354 355 349 357 358 355 351 341 330 316 312 311 308 310 308 292
132 331 354 337 90 166 358 79 135 253 322 280 287 240 261 218 267 268 269 266 252 254 249 267 299 339 344 343 349 353 353 350 351 349 344 340 328 314 306 301 293 290 296 286
113 311 316 66 115 104 316 33 139 111 8 344 275 292 300 277 289 283 272 268 265 272 289 296 321 345 347 347 344 352 348 343 345 344 343 341 327 311 304 300 294 289 287 289
179 41 289 281 159 82 105 170 17 2 22 317 299 287 246 256 260 263 277 256 266 274 286 295 320 330 346 347 349 349 348 346 344 342 344 337 335 316 315 303 297 284 283 277
133 117 285 330 345 143 40 355 55 100 127 171 291 274 215 217 219 229 259 260 257 258 265 283 307 325 335 346 350 348 349 353 354 346 348 349 342 332 322 308 294 276 276 277
200 146 139 238 210 109 135 230 164 125 279 188 157 276 240 233 248 224 263 275 268 234 246 272 295 310 321 335 345 345 350 355 356 351 360 355 358 349 344 327 305 270 258 250
190 325 27 339 7 7 169 187 148 93 57 209 139 264 283 284 275 261 257 273 274 256 237 267 288 292 304 321 332 342 347 349 358 2 6 7 10 12 7 7 6 7 138 166
99 91 166 197 199 128 187 174 173 137 121 197 230 292 294 280 270 286 283 278 278 264 233 271 268 277 284 295 311 329 341 351 355 0 14 20 20 19 20 28 44 63 78 109
131 211 160 263 281 288 240 188 171 186 207 182 265 229 273 278 269 257 246 287 287 279 251 242 242 249 264 276 294 316 337 346 2 13 15 20 28 36 39 50 62 81 97 99
148 202 102 293 353 265 261 225 197 194 222 273 275 282 260 273 240 248 254 238 261 253 252 255 241 239 246 243 266 290 324 342 358 19 27 28 37 41 46 62 74 82 90 96
157 136 87 272 326 307 298 220 191 167 191 201 193 226 246 266 249 256 246 217 236 242 236 228 236 238 238 229 224 259 294 317 2 23 30 30 39 50 56 61 69 81 87 96
140 104 82 258 351 344 234 149 198 186 220 216 265 248 226 239 262 266 241 225 227 227 228 224 224 226 224 220 217 204 210 221 107 88 66 46 42 46 55 66 74 82 92 96
81 128 80 150 213 294 195 188 160 163 272 207 223 249 249 282 319 290 244 223 223 207 226 221 209 210 210 207 203 199 196 197 165 121 105 82 88 83 81 87 87 91 97 97
80 74 118 88 167 220 243 168 181 160 297 181 188 225 202 170 245 257 225 247 210 185 217 203 194 187 194 198 203 205 203 206 203 165 147 123 110 110 99 99 106 100 106 110
116 51 180 165 245 285 236 150 163 91 238 162 177 177 155 191 222 244 327 307 290 192 176 195 198 194 194 189 197 213 223 219 210 195 171 153 141 139 149 150 137 135 130 128
163 152 189 95 115 274 145 84 175 208 111 156 184 192 187 214 265 253 259 251 202 205 189 182 193 210 200 196 195 207 224 222 220 208 198 189 172 173 178 174 176 164 164 153
209 186 177 192 210 235 196 186 211 177 167 184 177 203 207 213 238 252 247 234 228 218 214 213 204 197 207 211 212 211 219 212 216 216 210 203 196 191 193 185 185 181 179 177
233 167 189 98 235 230 220 240 249 208 218 176 187 177 183 217 236 258 258 248 238 233 224 218 213 219 215 209 216 225 219 214 212 214 216 211 205 200 198 194 198 199 196 191
177 143 172 261 271 283 242 225 229 230 205 234 226 212 221 214 258 235 257 245 242 243 237 228 225 229 232 226 223 220 217 218 217 215 214 215 215 212 208 209 209 209 211 216
188 168 179 219 204 188 222 199 192 208 212 222 217 238 244 208 241 249 251 255 251 247 243 232 235 240 243 238 234 233 223 220 218 223 221 220 218 216 217 219 217 218 221 226